Printer-friendly version
Follow the MPC on Twitter Follow the MPC on Facebook The MPC blog
Minor Planet Center

MPEC 2009-V49 : 2009 VK24

The following Minor Planet Electronic Circular may be linked-to from your own Web pages, but must not otherwise be redistributed electronically.

A form allowing access to any MPEC is at the bottom of this page.


Read MPEC 2009-V48 Read MPEC 2009-V50


M.P.E.C. 2009-V49                                Issued 2009 Nov. 12, 02:04 UT

     The Minor Planet Electronic Circulars contain information on unusual
         minor planets and routine data on comets.  They are published
   on behalf of Commission 20 of the International Astronomical Union by the
          Minor Planet Center, Smithsonian Astrophysical Observatory,
                          Cambridge, MA 02138, U.S.A.

             Prepared using the Tamkin Foundation Computer Network

                              MPC@CFA.HARVARD.EDU
          URL http://www.cfa.harvard.edu/iau/mpc.html  ISSN 1523-6714

                                   2009 VK24

Observations:
     K09V24K* C2009 11 10.24822 01 51 40.41 +39 53 24.2          19.4   EV049704
     K09V24K  C2009 11 10.27268 01 51 43.09 +39 56 36.1          20.3   EV049704
     K09V24K  C2009 11 10.28497 01 51 44.51 +39 58 14.8          19.7   EV049704
     K09V24K  C2009 11 10.29719 01 51 45.95 +39 59 51.1          20.2   EV049704
     K09V24K  C2009 11 11.05368 01 53 53.49 +41 41 24.4                 EV049204
     K09V24K  C2009 11 11.06214 01 53 54.76 +41 42 31.7          19.5 C EV049204
     K09V24K  C2009 11 11.07049 01 53 56.01 +41 43 37.8                 EV049204
     K09V24K  C2009 11 11.07152 01 53 56.01 +41 43 44.5          19.3 R EV049473
     K09V24K  C2009 11 11.07291 01 53 56.21 +41 43 54.7          19.3 R EV049473
     K09V24K  C2009 11 11.12669 01 54 14.95 +41 51 47.9          19.1 R EV049H26
     K09V24K  C2009 11 11.12903 01 54 15.16 +41 52 08.7          18.4 R EV049H26
     K09V24K  C2009 11 11.13603 01 54 16.10 +41 53 05.7          18.8 R EV049H26
     K09V24K  C2009 11 11.21502 01 54 29.33 +42 04 08.0          19.2 R EV049H01
     K09V24K  C2009 11 11.21872 01 54 29.81 +42 04 38.5          19.1 R EV049H01
     K09V24K  C2009 11 11.22329 01 54 30.41 +42 05 16.3          19.2 R EV049H01
     K09V24K  C2009 11 11.22800 01 54 31.03 +42 05 55.1          19.4 R EV049H01
     K09V24K  C2009 11 11.30625 01 54 40.26 +42 16 17.3          19.2 R EV049H36
     K09V24K  C2009 11 11.31126 01 54 41.07 +42 16 58.6          19.3 R EV049H36
     K09V24K  C2009 11 11.31461 01 54 41.53 +42 17 24.1          18.9 R EV049H36
     K09V24K  C2009 11 11.31590 01 54 43.23 +42 17 57.4          19.9 R EV049854
     K09V24K  C2009 11 11.31855 01 54 43.40 +42 18 15.3          20.3 R EV049854
     K09V24K  C2009 11 11.32471 01 54 44.68 +42 19 00.0          20.3 R EV049854
     K09V24K  C2009 11 11.32735 01 54 44.61 +42 19 28.2          19.9 R EV049854
     K09V24K  C2009 11 11.32997 01 54 44.94 +42 19 48.7          20.3 R EV049854
     K09V24K  C2009 11 11.34492 01 54 47.11 +42 21 49.1          20.0 R EV049926
     K09V24K  C2009 11 11.34659 01 54 47.41 +42 22 02.3          20.2 R EV049926
     K09V24K  C2009 11 11.34824 01 54 47.64 +42 22 16.4          20.2 R EV049926
     K09V24K  C2009 11 11.35721 01 54 48.92 +42 23 25.5          20.0 V EV049G96
     K09V24K  C2009 11 11.36282 01 54 49.75 +42 24 10.0          20.0 V EV049G96
     K09V24K  C2009 11 11.36847 01 54 50.58 +42 24 55.0          19.6 V EV049G96
     K09V24K  C2009 11 11.85368 01 56 32.49 +43 31 38.7          20.0 R EV049A99
     K09V24K  C2009 11 11.85806 01 56 33.16 +43 32 15.6          19.9 R EV049A99
     K09V24K  C2009 11 11.86244 01 56 33.81 +43 32 52.4          19.9 R EV049A99
     K09V24K  C2009 11 11.86680 01 56 34.49 +43 33 29.0          19.8 R EV049A99
     K09V24K  C2009 11 11.87116 01 56 35.18 +43 34 05.5          19.8 R EV049A99

Observer details:
204 Schiaparelli Observatory.  Observer L. Buzzi.  0.60-m f/4.64 reflector
    + CCD.
473 Remanzacco.  Observers L. Donato, V. Gonano, E. Guido, V. Santini,
    G. Sostero.  0.45-m f/4.4 Newtonian reflector + CCD.
704 Lincoln Laboratory ETS, New Mexico.  Observers M. Bezpalko, D. Torres,
    R. Kracke, G. Spitz, M. Blythe.  Measurer J. Stuart.  1.0-m f/2.15
    reflector + CCD.
854 Sabino Canyon Observatory, Tucson.  Observer J. E. McGaha.  0.36-m f/10.0
    Schmidt-Cassegrain + CCD.
926 Tenagra II Observatory.  Observers P. R. Holvorcem, M. Schwartz.  Measurer
    P. R. Holvorcem.  0.81-m f/7 Ritchey-Chretien + CCD.
A99 Osservatorio del Monte Baldo.  Observer C. Flavio.  Measurer M. Claudio.
G96 Mt. Lemmon Survey.  Observer E. Beshore.  Measurers E. C. Beshore,
    A. Boattini, G. J. Garradd, A. R. Gibbs, A. D. Grauer, R. E. Hill,
    R. A. Kowalski, S. M. Larson, R. H. McNaught.  1.5-m reflector + CCD.
H01 Magdalena Ridge Observatory, Socorro.  Observers W. H. Ryan, E. V. Ryan.
    Measurer W. H. Ryan.  2.4-m f/8.9 reflector + CCD.
H26 Doc Greiner Research Observatory, Janesvillle.  Observer M. Mills.  0.4-m
    f/8 Schmidt-Cassegrain + CCD.
H36 Sandlot Observatory, Scranton.  Observer G. Hug.  0.56-m reflector + CCD.

Orbital elements:
2009 VK24                                                Earth MOID = 0.0734 AU
Epoch 2010 Jan. 4.0 TT = JDT 2455200.5                  MPC
M  13.75373              (2000.0)            P               Q
n   0.42679367     Peri.   45.08577     +0.30860782     -0.95021171
a   1.7471254      Node    27.02631     +0.84379104     +0.25255866
e   0.4088373      Incl.    5.44463     +0.43906480     +0.18251526
P   2.31           H   24.1           G   0.15           U   8
Residuals in seconds of arc
091110 704  0.8+  1.6+    091111 H01  0.2-  0.2-    091111 926  0.2-  0.3-
091110 704  0.2-  1.4-    091111 H01  0.2-  0.3-    091111 926  0.5+  0.5-
091110 704  0.1-  0.1-    091111 H01  0.2-  0.2-    091111 926  0.5+  0.5+
091110 704  0.2+  0.4-    091111 H01  0.1-  0.2-    091111 G96  0.1-  0.2-
091111 204  0.0   0.6-    091111 H36  0.2+  0.1+    091111 G96  0.1+  0.4-
091111 204  0.2-  0.3-    091111 H36  1.1+  1.3+    091111 G96  0.2+  0.3-
091111 204  0.5-  0.2-    091111 H36  0.7+  0.1+    091111 A99  0.4+  0.0
091111 473 (0.7+  2.2+)   091111 854 (0.9+  2.4+)   091111 A99  0.3+  0.0
091111 473  0.4+  1.4+    091111 854  1.2-  1.0-    091111 A99  0.0   0.0
091111 H26 (1.2+  4.6+)   091111 854 (3.6+  5.9-)   091111 A99  0.1+  0.1-
091111 H26 (0.0   6.0+)   091111 854  1.2-  1.1+    091111 A99  0.3+  0.3-
091111 H26 (0.3-  4.8+)   091111 854  1.5-  0.6+

Ephemeris:
2009 VK24                a,e,i = 1.75, 0.41, 5                   q = 1.0328
Date    TT    R. A. (2000) Decl.     Delta      r     Elong.  Phase     V
2009 11 05    01 41.03   +29 08.0    0.0879   1.075   160.8    17.7    19.9
2009 11 15    02 09.26   +50 56.8    0.0741   1.050   144.5    33.1    19.9
2009 11 25    04 00.39   +72 10.6    0.0760   1.036   128.5    48.2    20.4
2009 12 05    08 35.36   +74 51.9    0.0899   1.033   119.8    55.9    21.0
2009 12 15    10 15.29   +66 21.6    0.110    1.041   118.6    56.1    21.4
2009 12 25    10 34.69   +59 21.3    0.132    1.060   122.5    51.5    21.7
2010 01 04    10 31.27   +54 01.6    0.155    1.089   129.6    44.1    21.9

Timothy B. Spahr             (C) Copyright 2009 MPC           M.P.E.C. 2009-V49

Read MPEC 2009-V48 Read MPEC 2009-V50


MPEC number:

Enter an MPEC number in one of the following forms:

  • 1997-B01 (the full form)
  • J97B01 (the packed version of the full form)
  • B01 (the abbreviated form)

Valid HTML 4.01!